Overview Statistics Trail Chart Weather Telemetry Raw packets
 

This is the latest recevied weather packets stored in our database for station/object OM5ZU-10. If no packets are shown the sender has not sent any weather packets the latest 10 day(s).

<< 28 29 30 31 32 33 34 >>
Time Temp. Humidity Pressure Rain* Wind** Luminosity Snow
1787911639 28.33° C 39% 1016.6 hPa - - - -
1787910739 28.33° C 39% 1016.9 hPa - - - -
1787909839 27.78° C 41% 1016.9 hPa - - - -
1787908939 27.78° C 39% 1017 hPa - - - -
1787908039 27.22° C 40% 1017.1 hPa - - - -
1787907138 26.67° C 43% 1017.3 hPa - - - -
1787906238 26.67° C 42% 1017.6 hPa - - - -
1787905337 26.67° C 43% 1017.8 hPa - - - -
1787904437 25.56° C 45% 1018 hPa - - - -
1787903537 25° C 46% 1018 hPa - - - -
1787902637 23.89° C 46% 1018.1 hPa - - - -
1787901736 24.44° C 46% 1018 hPa - - - -
1787900836 24.44° C 47% 1017.9 hPa - - - -
1787899592 23.89° C 46% 1017.8 hPa - - - -
1787898693 23.33° C 49% 1017.5 hPa - - - -
1787897793 21.67° C 50% 1017.8 hPa - - - -
1787896892 23.33° C 47% 1017.6 hPa - - - -
1787895993 22.22° C 49% 1018.1 hPa - - - -
1787895093 21.11° C 51% 1018.1 hPa - - - -
1787894192 19.44° C 54% 1018 hPa - - - -
1787893292 20° C 53% 1018.3 hPa - - - -
1787892391 20.56° C 53% 1018.1 hPa - - - -
1787891491 20° C 53% 1018 hPa - - - -
1787890591 19.44° C 54% 1017.8 hPa - - - -
1787889690 19.44° C 54% 1017.6 hPa - - - -

* Rain since midnight (hover to see other rain measurements)
** Current wind speed in m/s (hover to see current wind gust speed)